GW3329 Weather Reports


time (UTC)temp
F
wind
direction
speed
knots
gust
knots
rain 1hr
in
rain 24hr
in
rain mn
in
humidity
%
barometer
mb
20260901154849 67 116 0.9 1.7 0.00 0.00 0.00 84 1019.2
20260901154348 66 136 0.0 0.9 0.00 0.00 0.00 84 1019.2
20260901153843 64 139 0.0 0.9 0.00 0.00 0.00 88 1019.3
20260901153337 64 74 0.0 0.0 0.00 0.00 0.00 91 1019.4
20260901152836 62 164 0.0 0.0 0.00 0.00 0.00 93 1019.2
20260901152336 61 81 0.0 0.0 0.00 0.00 0.00 98 1019.3
20260901151831 60 104 0.0 0.0 0.00 0.00 0.00 99 1019.3
20260901151326 60 151 0.0 0.0 0.00 0.00 0.00 99 1019.4
20260901150820 59 139 0.0 0.0 0.00 0.00 0.00 99 1019.3
20260901150318 59 196 0.0 0.0 0.00 0.00 0.00 99 1019.4
20260901145815 59 115 0.0 0.0 0.00 0.00 0.00 99 1019.3
20260901145314 59 226 0.0 0.0 0.00 0.00 0.00 99 1019.4
20260901144805 59 180 0.0 0.0 0.00 0.00 0.00 99 1019.2
20260901144301 59 119 0.0 0.0 0.00 0.00 0.00 99 1019.2
20260901143756 59 141 0.0 0.0 0.00 0.00 0.00 99 1019.1
20260901143253 59 145 0.0 0.0 0.00 0.00 0.00 99 1018.9
20260901142749 59 154 0.0 0.0 0.00 0.00 0.00 99 1018.9
20260901142247 58 141 0.0 0.0 0.00 0.00 0.00 99 1018.9
20260901141742 58 137 0.0 0.0 0.00 0.00 0.00 99 1018.9
20260901141237 58 169 0.0 0.0 0.00 0.00 0.00 99 1018.8
20260901140736 57 144 0.0 0.0 0.00 0.00 0.00 99 1018.7
20260901140234 57 121 0.0 0.0 0.00 0.00 0.00 99 1018.3
20260901135729 57 133 0.0 0.0 0.00 0.00 0.00 99 1018.5
20260901135224 57 142 0.0 0.0 0.00 0.00 0.00 99 1018.3
20260901134720 57 142 0.0 0.0 0.00 0.00 0.00 99 1018.4
20260901134220 57 131 0.0 0.9 0.00 0.00 0.00 99 1018.2
20260901133719 57 103 1.7 2.6 0.00 0.00 0.00 99 1018.3
20260901133218 57 102 0.9 1.7 0.00 0.00 0.00 99 1018.1
20260901132718 57 110 0.0 0.9 0.00 0.00 0.00 99 1018.3
20260901132218 57 121 0.0 2.6 0.00 0.00 0.00 99 1018.1
20260901131713 57 94 1.7 3.5 0.00 0.00 0.00 99 1018.2
20260901131206 57 82 1.7 3.5 0.00 0.00 0.00 99 1018.2
20260901130701 58 122 0.0 1.7 0.00 0.00 0.00 99 1018.3
20260901130200 58 114 0.0 0.9 0.00 0.00 0.00 99 1018.5
20260901125659 58 112 0.0 0.9 0.00 0.00 0.00 99 1018.5
20260901125154 58 148 0.0 0.0 0.00 0.00 0.00 99 1018.5
20260901124649 58 134 0.0 0.0 0.00 0.00 0.00 99 1018.4
20260901124148 58 113 0.0 0.0 0.00 0.00 0.00 99 1018.4
20260901123644 58 133 0.0 0.0 0.00 0.00 0.00 99 1018.4
20260901123143 58 112 0.0 0.0 0.00 0.00 0.00 99 1018.5
20260901122641 58 126 0.0 0.0 0.00 0.00 0.00 99 1018.6
20260901122137 58 141 0.0 0.0 0.00 0.00 0.00 99 1018.4
20260901121631 58 140 0.0 0.0 0.00 0.00 0.00 99 1018.5
20260901121126 58 140 0.0 0.0 0.00 0.00 0.00 99 1018.5
20260901120621 58 139 0.0 0.0 0.00 0.00 0.00 99 1018.4
20260901120116 58 137 0.0 0.0 0.00 0.00 0.00 99 1018.4
20260901115611 58 131 0.0 0.0 0.00 0.00 0.00 99 1018.2
20260901115108 58 154 0.0 0.0 0.00 0.00 0.00 99 1018.1
20260901114604 58 161 0.0 0.9 0.00 0.00 0.00 99 1018.3
20260901114102 58 149 0.0 0.0 0.00 0.00 0.00 99 1018.3
20260901113601 58 181 0.0 1.7 0.00 0.00 0.00 99 1018.3
20260901113052 58 153 0.0 0.0 0.00 0.00 0.00 99 1018.4
20260901112551 58 173 0.0 0.0 0.00 0.00 0.00 99 1018.4
20260901112045 58 174 0.0 0.0 0.00 0.00 0.00 99 1018.2
20260901111544 58 114 0.0 0.0 0.00 0.00 0.00 99 1018.3
20260901111043 58 155 0.0 0.0 0.00 0.00 0.00 99 1018.3
20260901110539 57 82 0.0 0.0 0.00 0.00 0.00 99 1018.3
20260901110034 57 158 0.0 0.0 0.00 0.00 0.00 99 1018.6
20260901105531 57 272 1.7 1.7 0.00 0.00 0.00 99 1018.2
20260901105030 56 222 0.9 1.7 0.00 0.00 0.00 99 1018.2
20260901104526 57 195 0.0 0.9 0.00 0.00 0.00 99 1018.2
20260901104021 57 172 0.0 0.0 0.00 0.00 0.00 99 1018.1
20260901103515 58 155 0.0 0.0 0.00 0.00 0.00 99 1017.9
20260901103012 58 131 0.0 0.0 0.00 0.00 0.00 99 1018.0
20260901102511 58 129 0.0 0.9 0.00 0.00 0.00 99 1018.0
20260901102006 58 119 1.7 1.7 0.00 0.00 0.00 99 1018.1
20260901101502 58 95 1.7 2.6 0.00 0.00 0.00 99 1018.0
20260901100955 59 119 0.0 0.0 0.00 0.00 0.00 99 1018.1
20260901100450 58 125 0.0 0.0 0.00 0.00 0.00 99 1018.0
20260901095943 58 106 0.0 0.0 0.00 0.00 0.00 99 1018.2
20260901095442 58 140 0.0 0.0 0.00 0.00 0.00 99 1018.2
20260901094936 58 163 0.0 0.0 0.00 0.00 0.00 99 1018.3
20260901094435 57 163 0.0 0.0 0.00 0.00 0.00 99 1018.3
20260901093929 57 163 0.0 0.0 0.00 0.00 0.00 99 1018.3
20260901093424 57 164 0.0 0.0 0.00 0.00 0.00 99 1018.2
20260901092919 57 165 0.0 0.0 0.00 0.00 0.00 99 1018.4
20260901092415 58 153 0.0 0.0 0.00 0.00 0.00 99 1018.3
20260901091911 58 162 0.0 0.0 0.00 0.00 0.00 99 1018.3
20260901091410 58 171 0.0 0.0 0.00 0.00 0.00 99 1018.1
20260901090905 58 161 0.0 0.0 0.00 0.00 0.00 99 1018.3
20260901090359 57 171 0.0 0.0 0.00 0.00 0.00 99 1018.5
20260901085856 57 159 0.0 0.0 0.00 0.00 0.00 98 1018.5
20260901085351 57 158 0.0 0.0 0.00 0.00 0.00 98 1018.4
20260901084847 57 165 0.0 0.0 0.00 0.00 0.00 98 1018.5
20260901084343 57 168 0.0 0.0 0.00 0.00 0.00 98 1018.4
20260901083839 58 170 0.0 0.0 0.00 0.00 0.00 98 1018.3
20260901083338 58 169 0.0 0.0 0.00 0.00 0.00 98 1018.4
20260901082836 57 182 0.0 0.0 0.00 0.00 0.00 98 1018.4
20260901082332 57 174 0.0 0.0 0.00 0.00 0.00 98 1018.7
20260901081827 57 211 0.0 0.0 0.00 0.00 0.00 98 1018.6
20260901081322 57 165 0.0 0.0 0.00 0.00 0.00 97 1018.5
20260901080817 57 165 0.0 0.0 0.00 0.00 0.00 97 1018.4
20260901080316 57 165 0.0 0.0 0.00 0.00 0.00 97 1018.4
20260901075810 57 165 0.0 0.0 0.00 0.00 0.00 97 1018.3
20260901075307 57 165 0.0 0.0 0.00 0.00 0.00 97 1018.6
20260901074801 57 165 0.0 0.0 0.00 0.00 0.00 97 1018.4
20260901074255 57 165 0.0 0.0 0.00 0.00 0.00 97 1018.7
20260901073751 57 165 0.0 0.0 0.00 0.00 0.00 97 1018.7
20260901073246 57 165 0.0 0.0 0.00 0.00 0.00 97 1018.3
20260901072742 58 167 0.0 0.0 0.00 0.00 0.00 97 1018.4
20260901072236 58 168 0.0 0.0 0.00 0.00 0.00 97 1018.4
20260901071730 58 173 0.0 0.0 0.00 0.00 0.00 97 1018.6
20260901071224 58 165 0.0 0.0 0.00 0.00 0.00 97 1018.3
20260901070718 58 165 0.0 0.0 0.00 0.00 0.00 97 1018.1
20260901070214 59 159 0.0 0.0 0.00 0.00 0.00 97 1018.3
20260901065713 58 171 0.0 0.0 0.00 0.00 0.00 97 1018.5
20260901065208 58 170 0.0 0.0 0.00 0.00 0.00 96 1018.3
20260901064705 58 165 0.0 0.0 0.00 0.00 0.00 96 1018.4
20260901064201 58 165 0.0 0.0 0.00 0.00 0.00 96 1018.5
20260901063658 59 165 0.0 0.0 0.00 0.00 0.00 96 1018.2
20260901063154 59 169 0.0 0.0 0.00 0.00 0.00 96 1018.2
20260901062649 59 185 0.0 0.0 0.00 0.00 0.00 96 1018.3
20260901062145 59 162 0.0 0.0 0.00 0.00 0.00 96 1018.0
20260901061641 59 166 0.0 0.0 0.00 0.00 0.00 95 1018.2
20260901061140 59 160 0.0 0.0 0.00 0.00 0.00 95 1018.4
20260901060640 59 160 0.0 0.0 0.00 0.00 0.00 95 1018.2
20260901060136 59 159 0.0 0.0 0.00 0.00 0.00 95 1018.0
20260901055632 60 165 0.0 0.0 0.00 0.00 0.00 95 1018.0
20260901055128 60 162 0.0 0.0 0.00 0.00 0.00 95 1017.9
20260901054625 59 176 0.0 0.0 0.00 0.00 0.00 95 1018.1
20260901054121 59 210 0.0 0.0 0.00 0.00 0.00 94 1018.1
20260901053617 59 164 0.0 0.0 0.00 0.00 0.00 94 1018.2
20260901053112 59 164 0.0 0.0 0.00 0.00 0.00 94 1018.1
20260901052612 60 165 0.0 0.0 0.00 0.00 0.00 94 1018.3
20260901052108 60 171 0.0 0.0 0.00 0.00 0.00 94 1018.0
20260901051607 60 164 0.0 0.0 0.00 0.00 0.00 94 1018.2
20260901051106 60 164 0.0 0.0 0.00 0.00 0.00 93 1018.0
20260901050601 60 164 0.0 0.0 0.00 0.00 0.00 93 1017.9
20260901050056 61 163 0.0 0.0 0.00 0.00 0.00 93 1018.1
20260901045552 61 176 0.0 0.0 0.00 0.00 0.00 93 1018.0
20260901045046 61 179 0.0 0.9 0.00 0.00 0.00 93 1018.1
20260901044542 61 256 0.9 0.9 0.00 0.00 0.00 93 1018.3
20260901044038 61 190 0.9 0.9 0.00 0.00 0.00 92 1018.1
20260901043533 61 173 0.0 0.0 0.00 0.00 0.00 92 1018.0
20260901043029 61 170 0.0 0.0 0.00 0.00 0.00 91 1018.0
20260901042528 61 179 0.0 0.0 0.00 0.00 0.00 91 1018.1
20260901042023 62 194 0.0 0.9 0.00 0.00 0.00 90 1017.9
20260901041513 62 183 0.9 0.9 0.00 0.00 0.00 90 1018.0
20260901041008 62 169 0.0 0.0 0.00 0.00 0.00 90 1017.9
20260901040502 62 173 0.0 0.0 0.00 0.00 0.00 89 1017.7
20260901040001 62 174 0.9 1.7 0.00 0.00 0.00 89 1017.5
20260901035459 62 164 0.0 0.0 0.00 0.00 0.00 89 1017.4
20260901034953 63 239 1.7 1.7 0.00 0.00 0.00 88 1017.6
20260901034452 63 182 0.9 0.9 0.00 0.00 0.00 88 1017.5
20260901033948 63 170 0.0 0.9 0.00 0.00 0.00 87 1017.4
20260901033446 63 193 0.9 0.9 0.00 0.00 0.00 87 1017.2
20260901032945 63 164 0.0 0.0 0.00 0.00 0.00 86 1017.3
20260901032440 63 177 0.0 0.0 0.00 0.00 0.00 86 1017.2
20260901031935 64 165 0.0 0.0 0.00 0.00 0.00 85 1017.3
20260901031431 64 176 0.0 0.0 0.00 0.00 0.00 85 1017.0
20260901030930 64 147 0.0 0.0 0.00 0.00 0.00 85 1017.4
20260901030426 64 184 0.0 0.9 0.00 0.00 0.00 84 1017.1
20260901025925 64 250 1.7 1.7 0.00 0.00 0.00 84 1017.0
20260901025420 64 164 0.0 0.9 0.00 0.00 0.00 83 1017.2
20260901024919 65 164 0.0 0.0 0.00 0.00 0.00 82 1017.0
20260901024414 65 160 0.0 0.0 0.00 0.00 0.00 82 1017.1
20260901023913 66 123 0.0 0.0 0.00 0.00 0.00 81 1016.9
20260901023407 66 174 0.0 0.0 0.00 0.00 0.00 80 1016.9
20260901022902 66 165 0.0 0.9 0.00 0.00 0.00 80 1016.9
20260901022359 67 24 0.0 0.9 0.00 0.00 0.00 79 1017.2
20260901021853 67 173 0.0 0.9 0.00 0.00 0.00 78 1017.1
20260901021349 68 62 0.9 1.7 0.00 0.00 0.00 78 1016.9
20260901020843 68 129 0.0 0.9 0.00 0.00 0.00 77 1016.7
20260901020338 68 145 0.0 1.7 0.00 0.00 0.00 75 1017.0
20260901015833 69 149 0.0 0.0 0.00 0.00 0.00 75 1017.0
20260901015329 69 178 0.0 0.9 0.00 0.00 0.00 74 1017.0
20260901014828 69 68 1.7 2.6 0.00 0.00 0.00 74 1016.9
20260901014325 69 120 0.0 2.6 0.00 0.00 0.00 73 1016.7
20260901013820 70 40 0.0 2.6 0.00 0.00 0.00 72 1016.8
20260901013315 71 151 0.0 1.7 0.00 0.00 0.00 71 1017.0
20260901012811 71 85 0.0 0.9 0.00 0.00 0.00 71 1017.0
20260901012310 72 126 0.0 0.9 0.00 0.00 0.00 70 1016.8
20260901011806 73 108 0.9 1.7 0.00 0.00 0.00 69 1016.9
20260901011302 73 146 0.0 2.6 0.00 0.00 0.00 68 1016.8
20260901010756 73 182 0.9 1.7 0.00 0.00 0.00 68 1016.8
20260901010250 74 180 0.0 5.2 0.00 0.00 0.00 67 1016.8
20260901005749 74 273 2.6 3.5 0.00 0.00 0.00 66 1016.7
20260901005244 75 232 1.7 3.5 0.00 0.00 0.00 66 1016.8
20260901004738 75 219 1.7 5.2 0.00 0.00 0.00 65 1016.9
20260901004233 76 115 0.9 2.6 0.00 0.00 0.00 64 1016.9
20260901003728 77 226 2.6 5.2 0.00 0.00 0.00 63 1016.9
20260901003227 77 168 0.9 1.7 0.00 0.00 0.00 63 1016.7
20260901002721 77 197 1.7 2.6 0.00 0.00 0.00 63 1016.7
20260901002216 77 335 0.9 1.7 0.00 0.00 0.00 62 1016.9
20260901001711 77 307 0.0 1.7 0.00 0.00 0.00 64 1016.6
20260901001206 77 260 1.7 5.2 0.00 0.00 0.00 63 1016.8
20260901000701 79 251 1.7 5.2 0.00 0.00 0.00 62 1016.9
20260901000157 79 163 0.9 2.6 0.00 0.00 0.00 61 1016.7
20260831235650 80 164 0.0 2.6 0.00 0.00 0.00 61 1016.6
20260831235146 79 129 1.7 1.7 0.00 0.00 0.00 62 1016.6
20260831234645 79 151 0.9 1.7 0.00 0.00 0.00 61 1016.8
20260831234141 79 147 1.7 3.5 0.00 0.00 0.00 61 1016.7
20260831233636 80 285 3.5 3.5 0.00 0.00 0.00 61 1016.5
20260831233132 80 283 4.3 5.2 0.00 0.00 0.00 60 1016.6
20260831232626 80 143 1.7 2.6 0.00 0.00 0.00 60 1016.6
20260831232123 80 46 0.9 5.2 0.00 0.00 0.00 60 1016.5
20260831231619 81 197 0.9 1.7 0.00 0.00 0.00 59 1016.4
20260831231114 81 202 2.6 6.1 0.00 0.00 0.00 59 1016.5
20260831230610 81 223 2.6 3.5 0.00 0.00 0.00 59 1016.6
20260831230109 81 110 0.0 1.7 0.00 0.00 0.00 61 1016.8
20260831225604 81 135 0.0 5.2 0.00 0.00 0.00 61 1016.4
20260831225104 82 159 0.9 1.7 0.00 0.00 0.00 59 1016.6
20260831224600 81 89 1.7 1.7 0.00 0.00 0.00 61 1016.8
20260831224055 82 62 1.7 2.6 0.00 0.00 0.00 61 1016.6
20260831223551 82 149 3.5 3.5 0.00 0.00 0.00 60 1016.7
20260831223047 82 283 0.9 3.5 0.00 0.00 0.00 61 1016.7
20260831222543 82 28 2.6 6.1 0.00 0.00 0.00 61 1016.7
20260831222042 82 38 1.7 2.6 0.00 0.00 0.00 60 1016.7
20260831221538 82 219 3.5 6.1 0.00 0.00 0.00 61 1016.9
20260831221033 83 344 2.6 5.2 0.00 0.00 0.00 59 1017.0
20260831220528 83 165 0.0 7.0 0.00 0.00 0.00 60 1016.8
20260831220024 82 269 0.9 2.6 0.00 0.00 0.00 61 1017.2
20260831215519 82 96 0.9 8.7 0.00 0.00 0.00 62 1017.1
20260831215015 82 163 2.6 5.2 0.00 0.00 0.00 60 1017.0
20260831214513 82 267 4.3 7.0 0.00 0.00 0.00 60 1017.1
20260831214008 82 109 0.9 2.6 0.00 0.00 0.00 61 1017.2
20260831213504 83 210 1.7 5.2 0.00 0.00 0.00 61 1017.2
20260831213004 83 272 4.3 6.1 0.00 0.00 0.00 60 1017.3
20260831212500 82 130 0.9 3.5 0.00 0.00 0.00 62 1017.3
20260831211955 81 84 0.9 1.7 0.00 0.00 0.00 63 1017.2
20260831211450 83 69 0.9 5.2 0.00 0.00 0.00 62 1017.2
20260831210949 83 234 3.5 5.2 0.00 0.00 0.00 61 1017.3
20260831210444 83 227 3.5 5.2 0.00 0.00 0.00 61 1017.1
20260831205940 82 278 5.2 6.1 0.00 0.00 0.00 61 1017.6
20260831205435 82 166 2.6 6.1 0.00 0.00 0.00 61 1017.2
20260831204930 82 180 1.7 3.5 0.00 0.00 0.00 61 1017.5
20260831204430 82 161 0.9 5.2 0.00 0.00 0.00 62 1017.2
20260831203923 82 318 1.7 2.6 0.00 0.00 0.00 63 1017.3
20260831203418 82 292 4.3 7.0 0.00 0.00 0.00 62 1017.7
20260831202916 82 95 1.7 3.5 0.00 0.00 0.00 62 1017.3
20260831202411 82 50 1.7 2.6 0.00 0.00 0.00 63 1017.4
20260831201906 82 31 0.9 3.5 0.00 0.00 0.00 63 1017.5
20260831201404 82 205 3.5 5.2 0.00 0.00 0.00 62 1017.3
20260831200901 82 181 1.7 2.6 0.00 0.00 0.00 63 1017.4
20260831200355 82 281 3.5 5.2 0.00 0.00 0.00 62 1017.6
20260831195849 82 203 0.9 2.6 0.00 0.00 0.00 63 1017.6
20260831195345 82 38 2.6 5.2 0.00 0.00 0.00 63 1017.5
20260831194841 81 197 1.7 3.5 0.00 0.00 0.00 64 1017.5
20260831194336 81 44 0.9 3.5 0.00 0.00 0.00 64 1017.8
20260831193835 82 208 1.7 3.5 0.00 0.00 0.00 63 1017.6
20260831193330 81 324 1.7 2.6 0.00 0.00 0.00 63 1017.7
20260831192826 81 265 4.3 7.8 0.00 0.00 0.00 63 1017.8
20260831192320 81 337 3.5 6.1 0.00 0.00 0.00 63 1017.8
20260831191816 81 260 1.7 3.5 0.00 0.00 0.00 63 1018.1
20260831191312 81 69 1.7 3.5 0.00 0.00 0.00 62 1017.9
20260831190808 82 261 4.3 7.0 0.00 0.00 0.00 62 1017.8
20260831190308 82 144 0.9 3.5 0.00 0.00 0.00 61 1018.0
20260831185807 82 256 3.5 7.0 0.00 0.00 0.00 61 1017.9
20260831185306 82 160 1.7 2.6 0.00 0.00 0.00 61 1018.0
20260831184802 82 146 1.7 3.5 0.00 0.00 0.00 60 1017.8
20260831184258 82 291 1.7 3.5 0.00 0.00 0.00 59 1018.0
20260831183753 81 82 0.9 1.7 0.00 0.00 0.00 60 1017.9
20260831183252 81 283 1.7 2.6 0.00 0.00 0.00 59 1018.1
20260831182751 81 223 1.7 1.7 0.00 0.00 0.00 59 1018.0
20260831182246 81 240 0.9 2.6 0.00 0.00 0.00 60 1017.8
20260831181742 81 240 3.5 5.2 0.00 0.00 0.00 60 1017.6
20260831181237 81 297 5.2 7.0 0.00 0.00 0.00 60 1017.8
20260831180737 80 230 3.5 7.0 0.00 0.00 0.00 60 1018.0
20260831180232 81 203 3.5 6.1 0.00 0.00 0.00 59 1017.9
20260831175731 82 282 1.7 3.5 0.00 0.00 0.00 59 1017.6
20260831175228 82 271 1.7 2.6 0.00 0.00 0.00 60 1017.7
20260831174722 81 142 0.9 2.6 0.00 0.00 0.00 59 1017.7
20260831174218 81 305 1.7 3.5 0.00 0.00 0.00 60 1017.8
20260831173717 81 0 0.9 0.9 0.00 0.00 0.00 61 1017.8
20260831173207 81 295 1.7 2.6 0.00 0.00 0.00 61 1017.8
20260831172706 81 219 1.7 3.5 0.00 0.00 0.00 61 1017.8
20260831172202 80 15 1.7 1.7 0.00 0.00 0.00 63 1017.8
20260831171656 79 180 1.7 2.6 0.00 0.00 0.00 64 1017.7
20260831171154 79 147 0.9 3.5 0.00 0.00 0.00 63 1017.7
20260831170650 79 271 2.6 3.5 0.00 0.00 0.00 64 1017.7
20260831170147 78 223 0.9 5.2 0.00 0.00 0.00 65 1017.7
20260831165642 78 191 0.9 2.6 0.00 0.00 0.00 65 1017.7
20260831165138 77 259 1.7 2.6 0.00 0.00 0.00 67 1017.5
20260831164634 77 241 0.9 1.7 0.00 0.00 0.00 67 1017.7
20260831164130 78 263 3.5 5.2 0.00 0.00 0.00 67 1017.6
20260831163625 77 43 0.9 0.9 0.00 0.00 0.00 69 1017.5
20260831163121 77 39 0.9 2.6 0.00 0.00 0.00 69 1017.5
20260831162620 76 225 1.7 2.6 0.00 0.00 0.00 69 1017.3
20260831162117 75 114 0.0 0.9 0.00 0.00 0.00 73 1017.4
20260831161614 75 226 1.7 3.5 0.00 0.00 0.00 71 1017.6
20260831161110 75 304 0.9 1.7 0.00 0.00 0.00 73 1017.5
20260831160609 75 134 0.0 0.9 0.00 0.00 0.00 73 1017.5
20260831160105 74 117 0.0 0.9 0.00 0.00 0.00 74 1017.6
20260831155559 74 143 0.9 0.9 0.00 0.00 0.00 75 1017.5